#timestamp,LO_Frequency,Hit,StdDev 
1652778015.2,286047003.9,N
1652778035.1,286047003.5,N
1652778036.0,286047003.5,N
1652778055.8,286047003.2,N
1652778075.7,286047003.2,N
1652778095.5,286047003.6,N
1652778115.3,286047004.3,Y
1652778135.2,286047000.3,P
1652778155.0,286047000.1,N
1652778155.9,286047000.1,N
1652778175.7,286047000.4,N
1652778195.6,286047002.8,N
1652778215.4,286047002.8,N
1652778235.3,286047002.7,N
1652778255.1,286046999.8,N
1652778256.0,286046999.8,N
1652778275.8,286047002.4,N
1652778295.7,286047002.0,N
1652778315.5,286047002.6,N
1652778335.3,286047002.1,N
1652778355.2,286047002.1,N
1652778375.0,286047002.1,N
1652778375.9,286047002.1,N
1652778395.8,286047001.7,N
1652778415.6,286047003.1,N
1652778435.4,286047001.5,N
1652778455.3,286047002.2,N
1652778475.1,286047000.4,N
1652778525.9,286047001.5,E
1652778535.8,286047002.4,N
1652778555.6,286046999.7,P
1652778575.5,286047000.9,N
1652778595.3,286047000.0,N
1652778615.1,286047000.0,N
1652778635.9,286047002.7,N
1652778655.7,286047000.2,N
1652778675.6,286047000.3,N
1652778695.4,286046999.7,N
1652778715.2,286046999.9,N
1652778735.1,286046999.8,N
1652778736.0,286046999.8,N
1652778755.8,286047002.7,N
1652778775.6,286047000.0,N
1652778795.5,286047000.7,N
1652778815.3,286047002.4,N
1652778835.2,286047002.3,N
1652778855.9,286047001.5,N
1652778875.7,286047000.3,N
1652778895.6,286047000.6,N
1652778915.4,286047000.1,N
1652778935.2,286046999.8,N
1652778955.1,286047002.4,N
1652778956.0,286047002.4,N
1652778975.8,286047001.5,N
1652778995.7,286047002.4,N
1652779015.5,286047004.1,Y
1652779035.3,286047004.0,P
1652779055.2,286047002.2,N
1652779075.0,286047000.6,N
1652779075.9,286047000.6,N
1652779095.8,286047001.2,N
1652779115.6,286046998.3,N
1652779135.4,286046998.7,N
1652779155.3,286046998.3,N
1652779175.1,286047001.0,N
1652779195.8,286047000.6,N
1652779215.7,286047000.7,N
1652779235.5,286047001.2,N
1652779255.4,286047000.7,N
1652779275.2,286046998.8,N
1652779295.0,286046998.7,N
1652779295.9,286046998.7,N
1652779315.8,286046998.3,N
1652779335.6,286047000.0,N
1652779355.4,286047000.5,N
1652779375.3,286046998.4,N
1652779395.1,286047000.5,N
1652779415.9,286047000.7,N
1652779435.7,286047000.6,N
1652779455.5,286047000.0,N
1652779475.4,286047000.9,N
1652779495.2,286046999.9,N
1652779515.0,286047000.3,N
1652779516.0,286047000.3,N
1652779535.8,286046999.1,N
1652779555.6,286046996.6,N
1652779575.5,286046999.0,N
1652779595.3,286046998.6,N
1652779615.1,286046998.2,N
1652779635.9,286046998.4,N
1652779655.7,286047001.0,N
1652779675.6,286047001.2,N
1652779695.4,286046998.5,N
1652779715.2,286047000.8,N
1652779735.1,286046998.2,N
1652779736.0,286046998.2,N
1652779755.8,286046998.2,N
1652779775.7,286047001.2,N
1652779795.5,286047000.5,N
1652779815.3,286047000.9,N
1652779835.2,286046999.9,N
1652779855.9,286046998.3,N
1652779875.7,286047001.1,N
1652779895.6,286047000.8,N
1652779915.4,286047002.4,N
1652779935.3,286047002.4,N
1652779955.1,286047000.1,N
1652779956.0,286047000.1,N
1652779975.8,286046998.5,N
1652779995.7,286047000.0,N
1652780015.5,286047002.8,N
1652780035.3,286047002.7,N
1652780055.2,286046999.7,N
1652780075.0,286047002.7,N
1652780075.9,286047002.7,N
1652780095.8,286047002.4,N
1652780115.6,286047001.4,N
1652780135.4,286047002.5,N
1652780155.3,286047002.8,N
1652780175.1,286047001.0,N
1652780195.8,286047000.4,N
1652780215.7,286046998.5,N
1652780235.5,286046998.9,N
1652780255.4,286046998.8,N
1652780275.2,286047000.4,N
1652780295.0,286047000.4,N
1652780295.9,286047000.4,N
1652780315.8,286047000.3,N
1652780335.6,286047000.8,N
1652780355.5,286047001.0,N
1652780375.3,286047000.9,N
1652780395.1,286047000.2,N
1652780415.9,286047000.6,N
1652780435.7,286046999.9,N
1652780455.5,286047000.3,N
1652780475.4,286047000.2,N
1652780495.2,286047000.3,N
1652780515.1,286047000.5,N
1652780516.0,286047000.5,N
1652780535.8,286047002.3,N
1652780555.6,286047002.6,N
1652780575.5,286047002.6,N
1652780595.3,286047004.4,Y
1652780615.2,286047000.5,P
1652780635.9,286047000.5,N
1652780655.7,286047000.0,N
1652780675.6,286047000.2,N
1652780695.4,286047002.7,Y
1652780715.3,286047000.2,P
1652780735.1,286047000.0,N
1652780736.0,286047000.0,N
1652780755.8,286047002.5,Y
1652780775.7,286047000.0,P
1652780795.5,286047000.2,N
1652780815.4,286047000.5,P
1652780835.2,286047000.2,N
1652780855.0,286047000.2,N
1652780855.9,286047000.2,N
1652780875.8,286047000.5,Y
1652780895.6,286046998.1,P
1652780915.5,286046998.2,N
1652780935.3,286047000.4,N
1652780955.1,286046999.0,N
1652780975.9,286046999.0,N
1652780995.7,286046999.6,N
1652781015.6,286046998.8,N
1652781035.4,286046998.3,N
1652781055.2,286046998.2,N
1652781075.1,286047000.7,N
1652781076.0,286047000.7,N
1652781095.8,286046998.5,N
1652781115.6,286047001.1,N
1652781135.5,286047000.7,N
1652781155.3,286046998.9,N
1652781175.2,286047001.2,N
1652781195.9,286046998.6,N
1652781215.7,286046998.5,N
1652781235.6,286046998.2,N
1652781255.4,286046998.5,N
1652781275.2,286047001.1,N
1652781295.1,286046998.5,N
1652781296.0,286046998.5,N
1652781315.8,286046998.5,N
1652781335.7,286046999.3,N
1652781355.5,286046999.0,N
1652781375.3,286046999.4,N
1652781395.2,286046998.9,N
1652781415.0,286046996.7,Y
1652781415.9,286046996.7,P
1652781435.8,286046999.3,N
1652781455.6,286046999.5,N
1652781475.4,286046999.3,N
1652781495.3,286046999.0,N
1652781515.1,286046998.6,N
1652781535.8,286046999.0,N
1652781555.7,286046999.1,N
1652781575.5,286046998.7,N
1652781595.4,286047000.7,N
